{"data":{"norad_id":87280,"intl_designator":"","name":"UNKNOWN","alt_names":[],"object_type":"UNKNOWN","status":"UNKNOWN","operator":null,"country":null,"launch_date":null,"launch_site_code":null,"launch_vehicle":null,"mission":null,"orbit_class":"UNKNOWN","rcs_meters":null,"size_class":null,"mass_kg":null,"dimensions":null,"purposes":[],"wikipedia_slug":null,"has_3d_model":false,"image_url":null,"decayed_at":null,"tle_current":{"epoch":"2026-05-23T20:20:54.012768Z","epoch_age_seconds":164818,"freshness":"FRESH","line1":"1 87280U          26143.84784737  .00000378  00000+0  70504-3 0  9995","line2":"2 87280  64.6147 194.3873 0124651 228.3953 130.6353 13.48711421555717","mean_motion":13.48711421,"eccentricity":0.0124651,"inclination_deg":64.6147,"raan_deg":194.3873,"arg_perigee_deg":228.3953,"mean_anomaly_deg":130.6353,"bstar":0.00070504,"rev_number":55571,"period_min":106.76857759033,"perigee_km":984.07417857258,"apogee_km":1169.932315965,"semimajor_km":7455.1402472688,"source":"CELESTRAK","updated_at":"2026-05-25T13:38:11.666730Z"}}}